Retour au catalogue

STARLINK-33567

ActifCommunicationsVLEO
NORAD 62773·PAYLOAD·🇺🇸 United States

Lancé Jan 21, 2025 depuis Vandenberg Space Force Base

Loading…

Prochains Passages (prochaines 24 heures)

TLE

FraisSource: CelesTrak SupGP

Époque: Sep 15, 2026, 02:27 UTC

1 62773C 25015R   26258.10256944  .00037978  00000+0  11232-2 0  2584
2 62773  53.1582 159.0104 0000589  80.2018 237.1991 15.34342025    14

Suivez STARLINK-33567 en temps réel avec AllMySat

Download on the App Store